Location: Unspecified
(0.0000°N, 0.0000°E)
Time: 19:05:13
(UTC+00:00)

Courier 1B - Pass Details

Date: 28 November 2019
Orbit: 963 x 1209 km, 28.3° (Epoch: 08 December)

Event Time Altitude Azimuth Distance (km) Brightness Sun altitude
Rises 07:37:38 0° 324° (NW) 3,809 10.1 25.4°
Reaches altitude 10° 07:41:21 10° 342° (NNW) 2,809 9.6 26.3°
Maximum altitude 07:45:52 18° 24° (NNE) 2,204 9.5 27.3°
Drops below altitude 10° 07:50:15 10° 66° (ENE) 2,721 10.5 28.3°
Sets 07:53:45 0° 85° (E) 3,647 11.4 29.1°
